Theta_e
316 316 316 315 312 309 314 328 318 326 327 314 317 313 312 302 312 315 313 313 312 310 311 309 310 309 312 315 314 310 314 310 306 309 315 316 313 311 311 305 305 309 307 307
315 316 316 315 312 310 326 324 322 328 327 314 314 317 312 312 311 313 312 311 312 313 311 308 310 311 314 314 313 312 314 309 303 306 310 314 310 312 311 310 310 306 303 306
315 316 316 315 312 311 322 327 317 321 324 323 318 315 315 313 314 313 314 313 313 312 311 313 310 310 313 314 314 323 315 309 306 302 306 310 308 310 312 310 306 306 307 308
315 316 317 316 313 311 325 328 321 321 320 319 319 317 316 313 312 314 315 313 312 311 309 311 310 312 313 315 317 314 314 307 309 310 310 310 308 308 308 308 309 306 308 308
315 316 317 316 312 309 327 323 322 327 322 319 318 310 315 314 314 314 313 312 314 314 311 312 311 314 314 313 317 316 317 310 311 308 309 308 306 308 309 310 310 310 311 309
314 316 317 316 312 313 326 327 330 322 311 317 317 319 318 317 318 319 317 316 316 314 316 319 319 319 318 317 314 313 313 311 309 305 310 309 305 309 310 310 313 313 309 321
313 315 316 317 314 311 323 326 327 321 316 317 315 318 317 318 319 318 321 320 317 321 324 322 320 318 318 318 316 317 313 312 310 306 308 299 310 317 316 313 314 317 318 324
312 314 316 317 315 312 321 327 325 322 316 317 315 314 317 319 321 320 318 320 324 326 320 314 312 312 313 314 315 315 315 312 307 304 304 307 309 313 312 311 312 322 322 327
311 312 315 316 316 312 319 328 327 325 318 317 317 315 318 317 318 319 320 324 327 324 317 313 308 305 308 307 308 316 314 314 309 307 302 298 310 315 317 313 303 324 327 327
310 311 313 315 317 314 316 324 327 324 319 324 319 317 319 323 321 318 322 321 321 323 314 309 307 307 311 305 304 306 310 309 306 305 302 306 316 317 318 303 310 322 324 325
310 311 312 314 315 317 317 323 327 320 319 321 322 321 317 318 321 317 323 321 320 317 313 311 310 309 311 310 310 309 309 307 306 307 304 300 318 317 310 321 323 324 325 328
310 310 311 312 314 316 315 321 325 321 314 318 323 323 324 323 324 323 323 322 323 323 316 316 315 311 311 310 305 316 307 312 312 311 313 319 322 323 325 325 323 326 328 329
311 310 310 311 313 314 316 322 324 320 316 318 320 319 326 326 322 325 319 322 324 324 325 319 316 311 314 307 308 313 316 319 313 312 316 318 320 324 325 325 326 327 327 326
311 311 309 310 311 312 314 321 326 321 316 312 317 324 323 328 328 326 324 325 328 326 325 319 316 311 317 311 314 313 312 320 314 315 318 319 320 322 325 326 327 324 324 323
311 311 311 310 311 311 316 323 326 324 313 311 313 320 323 324 324 322 325 324 324 323 319 317 313 319 316 317 315 313 318 315 312 313 320 318 322 324 326 325 324 323 322 322
310 311 311 310 310 310 320 318 326 329 320 314 312 323 321 322 324 324 326 326 325 324 319 317 320 319 318 311 311 317 318 320 319 320 321 320 324 325 326 324 324 324 322 323
310 310 310 309 309 313 317 316 319 314 326 318 314 315 321 321 324 325 325 327 324 323 320 317 318 315 317 313 310 318 317 321 322 322 322 319 322 323 326 326 326 324 325 325
310 310 309 309 309 311 316 323 315 318 319 320 312 313 315 322 317 317 324 321 321 321 318 318 316 319 316 311 317 319 320 321 322 322 322 321 324 326 325 326 326 323 323 320
310 310 309 314 317 318 320 315 315 322 318 314 315 310 310 324 317 320 321 321 312 320 314 314 315 313 311 315 319 318 319 321 320 322 323 321 321 324 324 324 323 322 321 320
309 310 312 313 319 315 317 319 315 312 313 315 312 317 312 318 315 316 315 317 313 309 315 318 312 312 318 319 321 325 323 323 322 320 320 321 321 323 323 323 323 323 322 322
310 312 312 321 315 321 319 312 311 312 309 315 315 316 313 319 311 312 316 313 314 307 310 311 310 310 317 322 323 325 325 326 325 324 324 323 324 323 324 323 324 324 323 323
309 310 316 321 317 314 309 308 312 309 309 316 314 315 317 319 320 312 316 310 313 304 316 309 306 315 322 323 323 324 325 325 324 324 324 324 324 326 325 324 324 324 324 326
313 312 311 313 312 299 304 303 307 308 314 317 317 314 318 320 317 311 311 307 305 315 308 304 311 319 320 326 326 326 326 325 324 324 325 325 327 324 324 323 325 325 325 326
304 307 298 307 305 307 309 310 311 315 317 316 316 314 314 316 310 311 305 310 311 305 303 305 314 321 327 329 328 326 325 326 326 326 325 325 325 324 325 325 326 326 325 327
303 308 300 307 311 313 315 315 316 318 320 317 316 317 316 313 310 311 309 305 303 308 306 307 311 328 329 328 327 327 327 327 326 326 326 326 326 326 326 326 327 328 329 329
305 305 306 312 310 311 312 315 314 318 317 317 317 315 311 307 309 307 306 303 303 310 309 316 320 329 331 330 328 329 329 328 327 328 328 329 328 328 328 329 328 330 330 330
306 306 313 312 315 314 316 317 316 325 318 311 316 308 306 313 306 304 308 306 311 316 318 324 331 330 332 333 330 329 330 330 329 329 329 328 329 329 329 328 329 327 329 330
Wind_Speed
23 26 28 27 28 34 4 8 3 6 5 9 4 7 1 3 8 6 8 7 10 8 10 9 13 14 5 7 8 9 9 13 13 18 13 11 9 16 16 13 13 14 12 12
24 26 28 27 24 20 9 5 3 5 7 7 7 4 6 6 6 8 5 7 5 2 10 9 8 8 13 3 8 4 7 9 14 19 16 19 10 12 15 19 17 20 16 10
25 26 28 29 28 19 6 6 4 5 5 4 9 1 0 5 4 11 6 9 4 7 9 6 7 7 7 4 8 9 6 14 17 15 18 16 13 13 17 16 12 16 15 15
24 26 27 30 32 30 5 2 5 5 1 5 6 5 3 7 5 9 5 7 11 12 11 9 11 13 7 10 10 6 9 15 16 19 19 20 19 22 18 22 22 17 19 19
23 25 25 29 34 38 2 7 6 1 3 4 8 5 5 8 3 6 8 8 13 6 7 12 11 7 8 8 7 9 12 15 12 19 18 19 21 23 21 20 16 19 19 17
22 23 24 25 28 28 6 6 1 6 4 6 7 5 5 8 6 11 9 9 13 7 8 12 11 13 11 13 12 12 15 14 12 17 15 18 13 15 20 12 12 14 10 8
22 22 22 21 22 20 9 6 7 6 5 4 5 6 6 9 10 9 11 7 11 8 7 7 10 16 16 13 13 13 14 13 12 14 15 17 6 11 11 7 6 5 5 7
21 21 21 22 19 19 10 6 6 6 9 4 8 6 8 9 9 11 12 11 6 9 8 8 13 13 16 15 15 12 10 11 12 13 13 12 10 7 4 5 3 2 7 6
20 20 20 20 18 19 10 4 6 8 7 6 6 9 8 10 9 8 8 2 6 9 9 10 13 12 14 4 5 5 12 6 10 10 10 13 6 10 3 3 11 8 10 8
18 19 19 20 20 16 10 5 8 6 8 3 5 7 9 7 7 9 1 5 8 10 9 12 12 11 2 9 10 8 10 10 13 12 11 6 11 6 3 8 4 3 5 4
16 17 18 19 20 17 11 5 5 7 7 12 11 8 10 9 8 9 7 6 10 9 10 9 10 6 7 4 9 11 9 9 9 7 9 1 4 7 3 7 2 2 3 4
13 15 17 18 18 18 13 6 3 5 6 10 14 15 16 13 14 11 7 9 5 2 6 2 7 8 5 7 10 5 9 9 1 4 2 3 2 7 6 3 3 3 5 5
13 14 15 15 16 16 10 8 6 8 8 12 12 11 9 11 14 14 10 9 3 4 5 8 6 4 7 9 4 9 7 5 6 4 7 5 3 6 3 1 4 5 8 5
13 11 14 15 15 14 10 7 8 5 6 7 1 5 5 7 8 11 15 15 5 5 6 8 6 5 8 7 5 9 6 11 7 7 6 3 5 4 7 5 5 5 5 3
13 13 10 14 14 15 10 9 8 5 6 8 10 18 15 8 11 13 13 13 12 6 9 8 9 3 3 13 5 10 6 7 4 4 3 5 11 6 10 8 8 6 5 3
13 13 9 10 13 14 7 5 5 3 4 6 6 3 6 4 6 11 12 10 9 6 9 5 5 5 10 6 6 15 10 4 5 6 4 1 2 11 9 8 6 6 4 3
13 13 10 10 10 6 5 8 5 8 4 6 7 5 7 4 6 9 9 12 5 7 8 10 11 3 8 11 13 11 17 5 8 2 0 5 6 8 10 8 7 4 5 3
13 12 11 11 12 13 10 3 13 7 6 5 6 6 6 6 7 9 10 7 6 6 8 9 10 6 4 7 14 16 12 7 8 5 6 10 5 10 12 10 9 9 7 5
11 12 15 6 6 5 5 5 9 6 6 6 5 8 3 3 8 2 1 6 6 4 10 12 11 10 10 7 17 13 16 14 12 10 12 8 6 9 12 12 12 9 7 6
11 9 4 6 5 14 6 4 6 7 7 7 9 9 10 4 4 4 6 1 8 2 10 1 9 12 11 18 28 4 14 10 12 13 10 9 9 10 13 13 11 10 9 7
2 4 1 5 5 5 5 4 5 5 4 6 7 8 8 6 8 6 2 3 3 7 7 13 8 14 10 7 17 15 14 13 13 11 12 11 12 13 13 12 11 11 10 8
4 6 7 4 4 5 4 6 7 7 7 6 6 2 5 2 2 5 5 5 2 5 3 5 12 2 13 7 7 10 10 13 16 13 12 11 13 11 9 9 11 10 8 6
4 5 5 4 4 4 9 10 6 5 5 5 6 4 3 3 5 6 2 5 7 7 4 6 5 9 6 16 6 5 8 9 10 11 14 10 4 9 9 9 10 9 7 8
4 5 5 7 7 8 8 10 1 4 3 4 2 2 4 3 5 4 4 5 4 7 8 7 4 7 8 6 5 6 7 10 12 14 12 13 12 10 8 8 8 11 9 8
4 4 6 9 9 6 8 2 2 4 3 3 1 2 2 2 2 4 4 2 6 3 5 4 9 2 3 5 5 6 5 5 8 9 11 13 10 9 8 7 8 8 8 9
5 6 7 9 7 9 3 6 4 3 4 4 3 1 2 5 4 5 6 4 3 3 4 9 15 6 8 9 8 6 4 3 7 9 8 8 8 9 9 7 7 8 8 8
5 7 10 10 7 6 3 3 1 2 6 4 3 5 6 5 4 4 3 3 4 3 9 8 6 6 7 8 7 7 6 5 5 6 6 7 8 7 7 7 6 7 7 7
Wind_Direction
343 347 348 345 346 337 257 282 195 123 222 227 247 267 48 11 260 204 265 279 298 298 266 265 250 275 231 96 281 252 252 271 261 258 254 241 282 296 299 290 267 243 257 273
345 345 349 345 351 2 314 289 81 167 230 266 197 88 243 263 259 245 241 252 265 284 277 267 278 297 76 66 254 320 331 243 257 244 239 238 225 268 256 255 267 270 282 290
347 346 349 345 344 353 293 278 203 151 221 307 300 330 173 234 205 277 281 297 298 256 253 230 287 257 166 183 271 39 321 272 275 287 305 326 297 282 296 299 277 293 283 280
349 347 347 347 344 340 279 298 57 5 315 108 334 286 338 282 216 224 248 237 260 268 264 254 248 251 260 189 169 227 257 277 295 296 302 301 299 287 283 278 285 281 298 308
352 350 350 351 348 336 282 335 328 291 293 223 265 166 220 303 360 270 247 242 286 279 272 288 293 341 291 299 187 235 258 267 256 268 253 247 253 268 290 271 265 271 266 265
354 353 354 353 357 341 18 2 263 276 138 248 256 7 5 311 338 270 279 320 311 250 15 353 341 317 295 284 276 273 282 289 285 277 282 283 265 256 247 241 287 322 299 122
355 353 355 354 357 4 310 21 292 284 275 270 324 342 304 283 292 300 316 303 274 48 320 310 276 263 269 269 269 271 264 262 271 273 276 262 360 24 344 263 241 272 280 73
354 352 354 355 352 355 317 0 333 326 290 345 266 272 297 288 261 239 248 271 345 305 289 267 262 252 238 239 246 252 274 260 257 249 248 268 170 178 286 278 332 239 108 129
353 351 351 354 349 352 318 28 322 302 302 78 338 296 303 292 280 208 227 160 277 277 263 274 266 255 262 266 252 190 240 234 272 254 273 284 64 80 102 343 286 114 132 156
350 349 349 352 349 346 329 320 351 287 290 311 321 306 335 345 301 280 145 213 249 219 263 268 279 290 351 277 271 243 223 226 229 226 258 289 86 124 142 245 59 101 168 142
346 347 346 348 349 343 337 326 8 326 309 299 289 282 274 267 235 275 48 251 219 265 265 278 307 299 301 312 275 286 277 230 261 276 266 281 55 161 297 68 191 128 124 124
339 346 344 341 345 341 334 277 32 328 266 302 321 289 279 272 279 301 311 292 293 330 271 259 305 237 287 264 286 154 250 277 202 293 46 3 349 67 97 341 111 99 104 119
327 338 339 334 339 338 332 311 322 294 262 273 237 242 202 227 238 262 270 260 17 232 338 302 260 279 292 273 301 279 214 244 260 211 137 174 160 112 117 216 108 126 111 122
326 322 336 331 332 330 320 300 332 293 285 279 284 107 212 212 235 233 236 264 241 265 270 272 264 296 329 285 293 270 115 285 226 256 190 197 182 201 144 164 138 120 115 89
318 320 329 327 325 320 292 266 263 267 286 323 318 304 274 270 255 229 225 234 248 255 262 228 250 322 136 263 293 271 174 210 223 42 10 253 125 160 155 163 170 178 160 132
312 316 311 317 319 327 289 211 155 245 234 280 281 10 274 235 242 217 210 220 230 240 251 273 270 227 250 268 270 349 268 186 288 94 330 114 343 155 181 181 182 181 153 111
303 305 305 305 307 300 265 345 14 330 289 255 277 277 142 244 226 209 213 213 240 246 241 250 247 226 265 262 264 186 306 202 177 336 262 223 214 177 192 197 185 139 127 143
299 305 299 291 286 273 258 207 215 260 271 268 270 271 257 168 232 222 206 199 202 238 249 268 245 227 60 304 254 268 271 248 256 208 237 259 224 197 178 186 164 179 180 170
299 302 291 270 219 232 60 101 138 214 293 290 240 274 336 164 249 232 44 262 223 271 216 231 255 254 215 243 276 249 262 276 281 236 248 240 230 183 189 185 188 189 177 161
296 272 221 207 78 124 151 176 191 194 207 225 259 284 269 292 285 235 254 210 266 122 254 269 304 250 252 243 252 265 265 238 256 260 237 217 232 204 200 195 193 188 183 165
239 242 305 85 145 217 214 214 242 194 243 226 232 246 265 229 257 294 24 239 355 301 217 222 212 240 248 334 276 254 264 258 254 250 245 246 236 211 205 195 208 196 183 178
311 296 263 256 217 240 232 222 194 192 243 155 226 169 221 264 327 262 198 280 238 263 354 256 245 61 9 331 304 271 223 231 236 227 236 253 245 182 185 204 206 203 196 173
282 221 231 195 209 226 225 202 199 207 183 183 199 179 271 152 233 236 222 241 237 323 245 240 261 117 153 252 296 294 276 254 233 237 231 227 174 164 187 195 200 202 209 185
252 205 213 228 196 232 206 248 19 85 199 166 207 204 226 233 178 254 258 257 275 233 247 243 41 2 338 296 297 285 263 246 245 231 205 213 182 187 184 184 193 202 204 203
246 249 233 214 243 313 290 321 188 156 240 223 69 350 291 239 279 252 257 230 249 265 281 9 312 5 2 14 6 337 273 240 216 178 180 197 182 198 205 208 206 205 206 202
238 228 258 248 285 226 228 204 215 196 213 232 221 99 236 237 209 225 225 225 265 19 21 196 209 36 38 31 33 19 2 129 165 161 165 188 189 203 196 199 209 191 201 198
230 236 229 271 275 278 279 122 106 116 249 209 131 224 205 246 249 252 228 281 342 254 241 73 65 51 38 32 38 45 59 68 102 141 179 165 176 180 158 175 168 199 182 200